• In Austria
  • List of Countries
  • For 7 days
  • Water Temperature
  • Satellite Maps
  • Weather Map
  • News
  • Weather Widgets
  • user-avatar
    Login

    Hourly Weather Wlodzimierz

    Today, 20 August, Monday

    Time Temperature Precipitation Wind Pressure Humidity
    00:00 +24°C° 0 mm 2 mps 751 mmHg 52%
    01:00 +23°C° 0 mm 2 mps 751 mmHg 54%
    02:00 +23°C° 0 mm 2 mps 751 mmHg 56%
    03:00 +23°C° 0 mm 2 mps 750 mmHg 59%
    04:00 +23°C° 0 mm 2 mps 750 mmHg 61%
    05:00 +23°C° 0 mm 2 mps 750 mmHg 61%
    06:00 +24°C° 0 mm 3 mps 750 mmHg 61%
    07:00 +25°C° 0 mm 3 mps 750 mmHg 61%
    08:00 +27°C° 0 mm 3 mps 750 mmHg 56%
    09:00 +28°C° 0 mm 4 mps 750 mmHg 51%
    10:00 +30°C° 0 mm 4 mps 750 mmHg 46%
    11:00 +30°C° 0 mm 5 mps 750 mmHg 44%
    12:00 +32°C° 0 mm 5 mps 750 mmHg 41%
    13:00 +32°C° 0 mm 5 mps 750 mmHg 39%
    14:00 +32°C° 0 mm 5 mps 750 mmHg 41%
    15:00 +30°C° 0 mm 6 mps 750 mmHg 43%
    16:00 +30°C° 0 mm 6 mps 750 mmHg 44%
    17:00 +28°C° 0 mm 5 mps 750 mmHg 50%
    18:00 +27°C° 0 mm 4 mps 750 mmHg 56%
    19:00 +25°C° 0 mm 4 mps 750 mmHg 62%
    20:00 +24°C° 0 mm 3 mps 750 mmHg 65%
    21:00 +22°C° 0 mm 3 mps 751 mmHg 68%
    22:00 +21°C° 0 mm 2 mps 751 mmHg 72%
    23:00 +20°C° 0 mm 2 mps 751 mmHg 75%

    Tomorrow, 21 August, Tuesday

    Time Temperature Precipitation Wind Pressure Humidity
    00:00 +20°C° 0 mm 2 mps 751 mmHg 78%
    01:00 +19°C° 0 mm 2 mps 752 mmHg 81%
    02:00 +19°C° 0 mm 2 mps 752 mmHg 83%
    03:00 +18°C° 0 mm 2 mps 752 mmHg 86%
    04:00 +18°C° 0 mm 2 mps 752 mmHg 88%
    05:00 +18°C° 0 mm 2 mps 753 mmHg 82%
    06:00 +19°C° 0 mm 3 mps 753 mmHg 76%
    07:00 +19°C° 0 mm 3 mps 753 mmHg 71%
    08:00 +20°C° 0 mm 3 mps 754 mmHg 65%
    09:00 +21°C° 0 mm 4 mps 754 mmHg 59%
    10:00 +22°C° 0 mm 4 mps 754 mmHg 54%
    11:00 +23°C° 0 mm 4 mps 754 mmHg 49%
    12:00 +25°C° 0 mm 4 mps 754 mmHg 44%
    13:00 +26°C° 0 mm 4 mps 754 mmHg 40%
    14:00 +26°C° 0 mm 4 mps 753 mmHg 39%
    15:00 +26°C° 0 mm 3 mps 753 mmHg 38%
    16:00 +26°C° 0 mm 3 mps 753 mmHg 37%
    17:00 +25°C° 0 mm 3 mps 753 mmHg 41%
    18:00 +23°C° 0 mm 2 mps 753 mmHg 45%
    19:00 +20°C° 0 mm 2 mps 753 mmHg 49%
    20:00 +21°C° 0 mm 1 mps 754 mmHg 51%
    21:00 +20°C° 0 mm 1 mps 754 mmHg 53%
    22:00 +19°C° 0 mm 1 mps 754 mmHg 54%
    23:00 +19°C° 0 mm 1 mps 754 mmHg 56%

    Day after tomorrow, 22 August, Wednesday

    Time Temperature Precipitation Wind Pressure Humidity
    00:00 +18°C° 0 mm 1 mps 754 mmHg 58%
    01:00 +18°C° 0 mm 1 mps 754 mmHg 60%
    02:00 +18°C° 0 mm 1 mps 754 mmHg 62%
    03:00 +16°C° 0 mm 2 mps 754 mmHg 64%
    04:00 +16°C° 0 mm 2 mps 754 mmHg 66%
    05:00 +17°C° 0 mm 2 mps 754 mmHg 64%
    06:00 +18°C° 0 mm 2 mps 755 mmHg 62%
    07:00 +19°C° 0 mm 2 mps 755 mmHg 60%
    08:00 +21°C° 0 mm 2 mps 754 mmHg 54%
    09:00 +24°C° 0 mm 3 mps 754 mmHg 49%
    10:00 +25°C° 0 mm 3 mps 754 mmHg 43%
    11:00 +26°C° 0 mm 3 mps 754 mmHg 40%
    12:00 +27°C° 0 mm 3 mps 754 mmHg 38%
    13:00 +28°C° 0 mm 3 mps 753 mmHg 36%
    14:00 +28°C° 0 mm 3 mps 753 mmHg 36%
    15:00 +28°C° 0 mm 2 mps 752 mmHg 36%
    16:00 +28°C° 0 mm 2 mps 752 mmHg 35%
    17:00 +27°C° 0 mm 2 mps 752 mmHg 40%
    18:00 +25°C° 0 mm 2 mps 752 mmHg 44%
    19:00 +24°C° 0 mm 2 mps 752 mmHg 49%
    20:00 +23°C° 0 mm 2 mps 752 mmHg 51%
    21:00 +21°C° 0 mm 3 mps 752 mmHg 53%
    22:00 +20°C° 0 mm 3 mps 752 mmHg 56%
    23:00 +20°C° 0 mm 3 mps 752 mmHg 58%

    23 August, Thursday

    Time Temperature Precipitation Wind Pressure Humidity
    00:00 +19°C° 0 mm 3 mps 752 mmHg 61%
    01:00 +19°C° 0 mm 3 mps 751 mmHg 64%
    02:00 +19°C° 0 mm 3 mps 751 mmHg 66%
    03:00 +18°C° 0 mm 3 mps 751 mmHg 68%
    04:00 +18°C° 0 mm 3 mps 751 mmHg 70%
    05:00 +19°C° 0 mm 3 mps 751 mmHg 68%
    06:00 +20°C° 0 mm 3 mps 750 mmHg 66%
    07:00 +21°C° 0 mm 3 mps 750 mmHg 64%
    08:00 +24°C° 0 mm 3 mps 750 mmHg 57%
    09:00 +27°C° 0 mm 3 mps 750 mmHg 50%
    10:00 +29°C° 0 mm 3 mps 750 mmHg 43%
    11:00 +30°C° 0 mm 3 mps 749 mmHg 41%
    12:00 +31°C° 0 mm 3 mps 749 mmHg 39%
    13:00 +33°C° 0 mm 3 mps 748 mmHg 36%
    14:00 +33°C° 0 mm 3 mps 748 mmHg 37%
    15:00 +33°C° 0 mm 3 mps 748 mmHg 38%
    16:00 +32°C° 0 mm 2 mps 747 mmHg 39%
    17:00 +31°C° 0.1 mm 3 mps 747 mmHg 43%
    18:00 +29°C° 0.1 mm 3 mps 747 mmHg 48%
    19:00 +28°C° 0.1 mm 3 mps 747 mmHg 53%
    20:00 +27°C° 1.1 mm 3 mps 747 mmHg 56%
    21:00 +26°C° 1.1 mm 3 mps 746 mmHg 60%
    22:00 +25°C° 1.1 mm 3 mps 746 mmHg 64%
    23:00 +25°C° 0.3 mm 3 mps 746 mmHg 65%

    24 August, Friday

    Time Temperature Precipitation Wind Pressure Humidity
    00:00 +25°C° 0.3 mm 3 mps 746 mmHg 66%
    01:00 +24°C° 0.3 mm 3 mps 746 mmHg 67%
    02:00 +24°C° 0.5 mm 3 mps 745 mmHg 69%
    03:00 +22°C° 0.5 mm 3 mps 745 mmHg 71%
    04:00 +22°C° 0.5 mm 3 mps 745 mmHg 73%
    05:00 +22°C° 0.3 mm 3 mps 745 mmHg 72%
    06:00 +24°C° 0.3 mm 3 mps 745 mmHg 70%
    07:00 +25°C° 0.3 mm 4 mps 745 mmHg 69%
    08:00 +26°C° 0 mm 4 mps 745 mmHg 64%
    09:00 +27°C° 0 mm 4 mps 745 mmHg 59%
    10:00 +29°C° 0 mm 4 mps 745 mmHg 55%
    11:00 +30°C° 0.1 mm 4 mps 744 mmHg 51%
    12:00 +32°C° 0.1 mm 4 mps 744 mmHg 48%
    13:00 +32°C° 0.1 mm 4 mps 744 mmHg 44%
    14:00 +32°C° 0 mm 4 mps 744 mmHg 46%
    15:00 +30°C° 0 mm 4 mps 744 mmHg 48%
    16:00 +29°C° 0 mm 3 mps 744 mmHg 50%
    17:00 +27°C° 0.3 mm 4 mps 744 mmHg 56%
    18:00 +26°C° 0.3 mm 4 mps 744 mmHg 63%
    19:00 +23°C° 0.3 mm 4 mps 744 mmHg 69%
    20:00 +22°C° 0.3 mm 4 mps 745 mmHg 74%
    21:00 +21°C° 0.3 mm 3 mps 745 mmHg 80%
    22:00 +20°C° 0.3 mm 3 mps 745 mmHg 85%
    23:00 +20°C° 0.1 mm 3 mps 746 mmHg 86%

    25 August, Saturday

    Time Temperature Precipitation Wind Pressure Humidity
    00:00 +20°C° 0.1 mm 3 mps 746 mmHg 87%
    01:00 +19°C° 0.1 mm 3 mps 746 mmHg 88%
    02:00 +19°C° 0.3 mm 3 mps 746 mmHg 88%
    03:00 +18°C° 0.3 mm 4 mps 747 mmHg 89%
    04:00 +18°C° 0.3 mm 4 mps 747 mmHg 89%
    05:00 +18°C° 0.4 mm 4 mps 747 mmHg 88%
    06:00 +16°C° 0.4 mm 5 mps 747 mmHg 88%
    07:00 +16°C° 0.4 mm 5 mps 747 mmHg 87%
    08:00 +16°C° 0.8 mm 5 mps 747 mmHg 87%
    09:00 +15°C° 0.8 mm 5 mps 747 mmHg 86%
    10:00 +15°C° 0.8 mm 5 mps 747 mmHg 86%
    11:00 +14°C° 1.4 mm 6 mps 748 mmHg 86%
    12:00 +14°C° 1.4 mm 6 mps 748 mmHg 86%
    13:00 +14°C° 1.4 mm 6 mps 748 mmHg 86%
    14:00 +12°C° 0.9 mm 7 mps 748 mmHg 86%
    15:00 +12°C° 0.9 mm 7 mps 748 mmHg 85%
    16:00 +12°C° 0.9 mm 7 mps 747 mmHg 84%
    17:00 +11°C° 1.9 mm 6 mps 748 mmHg 85%
    18:00 +11°C° 1.9 mm 6 mps 748 mmHg 86%
    19:00 +10°C° 1.9 mm 6 mps 748 mmHg 88%
    20:00 +10°C° 0.5 mm 5 mps 748 mmHg 88%
    21:00 +10°C° 0.5 mm 5 mps 748 mmHg 88%
    22:00 +11°C° 0.5 mm 4 mps 748 mmHg 88%
    23:00 +11°C° 0 mm 4 mps 748 mmHg 88%
    Show more